date,time,SUV Intensity [MED/Hr],UV Index,Daily total [MED],Since Last [MED]
11/07/2023,23:58:50,0.000,0.0,7.031,7.031
11/07/2023,23:59:50,0.001,0.0,7.031,0.0
12/07/2023,00:00:50,-0.000,0.0,0.0,-7.031
12/07/2023,00:01:50,0.000,0.0,0.0,0.0
12/07/2023,00:02:50,0.000,0.0,0.0,0.0
12/07/2023,00:03:50,0.000,0.0,0.0,0.0
12/07/2023,00:04:50,0.001,0.0,0.0,0.0
12/07/2023,00:05:50,0.001,0.0,0.0,0.0
12/07/2023,00:06:50,0.000,0.0,0.0,0.0
12/07/2023,00:07:50,0.000,0.0,0.0,0.0
12/07/2023,00:08:50,0.000,0.0,0.0,0.0
12/07/2023,00:09:50,-0.001,0.0,0.0,0.0
12/07/2023,00:10:50,0.000,0.0,0.0,0.0
12/07/2023,00:11:51,-0.001,0.0,0.0,0.0
12/07/2023,00:12:50,0.000,0.0,0.0,0.0
12/07/2023,00:13:50,-0.000,0.0,0.0,0.0
12/07/2023,00:14:51,0.000,0.0,0.0,0.0
12/07/2023,00:15:50,-0.001,0.0,0.0,0.0
12/07/2023,00:16:51,0.000,0.0,0.0,0.0
12/07/2023,00:17:51,0.000,0.0,0.0,0.0
12/07/2023,00:18:50,0.000,0.0,0.0,0.0
12/07/2023,00:19:51,0.000,0.0,0.0,0.0
12/07/2023,00:20:50,-0.001,0.0,0.0,0.0
12/07/2023,00:21:50,-0.000,0.0,0.0,0.0
12/07/2023,00:22:50,0.000,0.0,0.0,0.0
12/07/2023,00:23:51,0.000,0.0,0.0,0.0
12/07/2023,00:24:50,0.001,0.0,0.0,0.0
12/07/2023,00:25:50,0.001,0.0,0.0,0.0
12/07/2023,00:26:50,-0.001,0.0,0.0,0.0
12/07/2023,00:27:50,-0.000,0.0,0.0,0.0
12/07/2023,00:28:50,0.001,0.0,0.0,0.0
12/07/2023,00:29:50,0.001,0.0,0.0,0.0
12/07/2023,00:30:50,-0.001,0.0,0.0,0.0
12/07/2023,00:31:49,-0.001,0.0,0.0,0.0
12/07/2023,00:32:50,0.000,0.0,0.0,0.0
12/07/2023,00:33:50,0.001,0.0,0.0,0.0
12/07/2023,00:34:50,0.000,0.0,0.0,0.0
12/07/2023,00:35:50,0.001,0.0,0.0,0.0
12/07/2023,00:36:50,-0.000,0.0,0.0,0.0
12/07/2023,00:37:50,0.000,0.0,0.0,0.0
12/07/2023,00:38:50,0.001,0.0,0.0,0.0
12/07/2023,00:39:50,0.000,0.0,0.0,0.0
12/07/2023,00:40:50,0.000,0.0,0.0,0.0
12/07/2023,00:41:50,-0.000,0.0,0.0,0.0
12/07/2023,00:42:50,0.000,0.0,0.0,0.0
12/07/2023,00:43:50,0.001,0.0,0.0,0.0
12/07/2023,00:44:50,-0.000,0.0,0.0,0.0
12/07/2023,00:45:50,0.000,0.0,0.0,0.0
12/07/2023,00:46:54,0.000,0.0,0.0,0.0
12/07/2023,00:47:51,0.000,0.0,0.0,0.0
12/07/2023,00:48:53,0.000,0.0,0.0,0.0
12/07/2023,00:49:51,-0.000,0.0,0.0,0.0
12/07/2023,00:50:50,0.000,0.0,0.0,0.0
12/07/2023,00:51:50,0.000,0.0,0.0,0.0
12/07/2023,00:52:50,0.000,0.0,0.0,0.0
12/07/2023,00:53:50,0.000,0.0,0.0,0.0
12/07/2023,00:54:52,0.001,0.0,0.0,0.0
12/07/2023,00:55:50,0.000,0.0,0.0,0.0
12/07/2023,00:56:50,0.000,0.0,0.0,0.0
12/07/2023,00:57:50,0.001,0.0,0.0,0.0
12/07/2023,00:58:50,0.000,0.0,0.0,0.0
12/07/2023,00:59:50,0.000,0.0,0.0,0.0
12/07/2023,01:00:50,-0.001,0.0,0.0,0.0
12/07/2023,01:01:50,0.000,0.0,0.0,0.0
12/07/2023,01:02:50,0.000,0.0,0.0,0.0
12/07/2023,01:03:50,0.000,0.0,0.0,0.0
12/07/2023,01:04:50,0.000,0.0,0.0,0.0
12/07/2023,01:05:51,0.000,0.0,0.0,0.0
12/07/2023,01:06:50,0.000,0.0,0.0,0.0
12/07/2023,01:07:50,0.001,0.0,0.0,0.0
12/07/2023,01:08:49,-0.000,0.0,0.0,0.0
12/07/2023,01:09:50,0.001,0.0,0.0,0.0
12/07/2023,01:10:50,0.000,0.0,0.0,0.0
12/07/2023,01:11:50,0.000,0.0,0.0,0.0
12/07/2023,01:12:50,0.000,0.0,0.0,0.0
12/07/2023,01:13:50,-0.000,0.0,0.0,0.0
12/07/2023,01:14:51,0.000,0.0,0.0,0.0
12/07/2023,01:15:50,0.000,0.0,0.0,0.0
12/07/2023,01:16:50,0.000,0.0,0.0,0.0
12/07/2023,01:17:50,0.000,0.0,0.0,0.0
12/07/2023,01:18:51,0.000,0.0,0.0,0.0
12/07/2023,01:19:50,0.000,0.0,0.0,0.0
12/07/2023,01:20:50,0.001,0.0,0.0,0.0
12/07/2023,01:21:50,0.000,0.0,0.0,0.0
12/07/2023,01:22:50,0.000,0.0,0.0,0.0
12/07/2023,01:23:50,0.000,0.0,0.0,0.0
12/07/2023,01:24:51,0.000,0.0,0.0,0.0
12/07/2023,01:25:51,-0.001,0.0,0.0,0.0
12/07/2023,01:26:50,-0.001,0.0,0.0,0.0
12/07/2023,01:27:50,-0.001,0.0,0.0,0.0
12/07/2023,01:28:50,0.000,0.0,0.0,0.0
12/07/2023,01:29:51,-0.001,0.0,0.0,0.0
12/07/2023,01:30:50,-0.000,0.0,0.0,0.0
12/07/2023,01:31:50,0.000,0.0,0.0,0.0
12/07/2023,01:32:51,0.000,0.0,0.0,0.0
12/07/2023,01:33:51,0.000,0.0,0.0,0.0
12/07/2023,01:34:50,0.000,0.0,0.0,0.0
12/07/2023,01:35:50,0.000,0.0,0.0,0.0
12/07/2023,01:36:50,0.000,0.0,0.0,0.0
12/07/2023,01:37:51,0.001,0.0,0.0,0.0
12/07/2023,01:38:51,0.000,0.0,0.0,0.0
12/07/2023,01:39:51,-0.001,0.0,0.0,0.0
12/07/2023,01:40:50,0.001,0.0,0.0,0.0
12/07/2023,01:41:50,0.000,0.0,0.0,0.0
12/07/2023,01:42:50,0.000,0.0,0.0,0.0
12/07/2023,01:43:50,0.001,0.0,0.0,0.0
12/07/2023,01:44:50,0.000,0.0,0.0,0.0
12/07/2023,01:45:51,0.000,0.0,0.0,0.0
12/07/2023,01:46:50,0.001,0.0,0.0,0.0
12/07/2023,01:47:51,0.000,0.0,0.0,0.0
12/07/2023,01:48:50,0.001,0.0,0.0,0.0
12/07/2023,01:49:51,0.000,0.0,0.0,0.0
12/07/2023,01:50:50,0.000,0.0,0.0,0.0
12/07/2023,01:51:50,0.001,0.0,0.0,0.0
12/07/2023,01:52:50,0.000,0.0,0.0,0.0
12/07/2023,01:53:50,0.000,0.0,0.0,0.0
12/07/2023,01:54:50,0.001,0.0,0.0,0.0
12/07/2023,01:55:50,0.000,0.0,0.0,0.0
12/07/2023,01:56:50,-0.000,0.0,0.0,0.0
12/07/2023,01:57:51,0.001,0.0,0.0,0.0
12/07/2023,01:58:50,0.000,0.0,0.0,0.0
12/07/2023,01:59:50,0.001,0.0,0.0,0.0
12/07/2023,02:00:51,0.001,0.0,0.0,0.0
12/07/2023,02:01:50,0.001,0.0,0.0,0.0
12/07/2023,02:02:51,0.001,0.0,0.0,0.0
12/07/2023,02:03:50,0.001,0.0,0.0,0.0
12/07/2023,02:04:50,0.000,0.0,0.0,0.0
12/07/2023,02:05:50,0.000,0.0,0.0,0.0
12/07/2023,02:06:50,-0.000,0.0,0.0,0.0
12/07/2023,02:07:50,0.001,0.0,0.0,0.0
12/07/2023,02:08:50,0.000,0.0,0.0,0.0
12/07/2023,02:09:50,-0.000,0.0,0.0,0.0
12/07/2023,02:10:50,0.000,0.0,0.0,0.0
12/07/2023,02:11:50,0.001,0.0,0.0,0.0
12/07/2023,02:12:50,0.000,0.0,0.0,0.0
12/07/2023,02:13:50,0.000,0.0,0.0,0.0
12/07/2023,02:14:50,0.001,0.0,0.0,0.0
12/07/2023,02:15:50,-0.001,0.0,0.0,0.0
12/07/2023,02:16:51,-0.000,0.0,0.0,0.0
12/07/2023,02:17:50,0.001,0.0,0.0,0.0
12/07/2023,02:18:51,0.001,0.0,0.0,0.0
12/07/2023,02:19:50,0.000,0.0,0.0,0.0
12/07/2023,02:20:50,0.001,0.0,0.0,0.0
12/07/2023,02:21:50,0.001,0.0,0.0,0.0
12/07/2023,02:22:51,0.001,0.0,0.0,0.0
12/07/2023,02:23:50,0.001,0.0,0.0,0.0
12/07/2023,02:24:51,0.000,0.0,0.0,0.0
12/07/2023,02:25:49,0.001,0.0,0.0,0.0
12/07/2023,02:26:50,0.000,0.0,0.0,0.0
12/07/2023,02:27:50,0.001,0.0,0.0,0.0
12/07/2023,02:28:50,0.001,0.0,0.0,0.0
12/07/2023,02:29:51,0.000,0.0,0.0,0.0
12/07/2023,02:30:50,0.000,0.0,0.0,0.0
12/07/2023,02:31:51,0.001,0.0,0.0,0.0
12/07/2023,02:32:51,0.000,0.0,0.0,0.0
12/07/2023,02:33:50,0.000,0.0,0.0,0.0
12/07/2023,02:34:51,0.001,0.0,0.0,0.0
12/07/2023,02:35:51,-0.000,0.0,0.0,0.0
12/07/2023,02:36:50,0.001,0.0,0.0,0.0
12/07/2023,02:37:51,0.001,0.0,0.0,0.0
12/07/2023,02:38:50,0.001,0.0,0.0,0.0
12/07/2023,02:39:51,-0.000,0.0,0.0,0.0
12/07/2023,02:40:50,0.001,0.0,0.0,0.0
12/07/2023,02:41:51,0.001,0.0,0.0,0.0
12/07/2023,02:42:50,0.000,0.0,0.0,0.0
12/07/2023,02:43:51,0.000,0.0,0.0,0.0
12/07/2023,02:44:50,-0.000,0.0,0.0,0.0
12/07/2023,02:45:50,0.000,0.0,0.0,0.0
12/07/2023,02:46:50,0.001,0.0,0.0,0.0
12/07/2023,02:47:50,0.000,0.0,0.0,0.0
12/07/2023,02:48:52,0.001,0.0,0.0,0.0
12/07/2023,02:49:50,0.001,0.0,0.0,0.0
12/07/2023,02:50:51,0.000,0.0,0.0,0.0
12/07/2023,02:51:50,0.001,0.0,0.0,0.0
12/07/2023,02:52:51,0.001,0.0,0.0,0.0
12/07/2023,02:53:50,0.000,0.0,0.0,0.0
12/07/2023,02:54:50,0.001,0.0,0.0,0.0
12/07/2023,02:55:51,0.000,0.0,0.0,0.0
12/07/2023,02:56:51,0.001,0.0,0.0,0.0
12/07/2023,02:57:50,0.001,0.0,0.0,0.0
12/07/2023,02:58:51,0.001,0.0,0.0,0.0
12/07/2023,02:59:50,0.000,0.0,0.0,0.0
12/07/2023,03:00:51,0.000,0.0,0.0,0.0
12/07/2023,03:01:50,0.000,0.0,0.0,0.0
12/07/2023,03:02:50,0.000,0.0,0.0,0.0
12/07/2023,03:03:51,0.000,0.0,0.0,0.0
12/07/2023,03:04:50,0.000,0.0,0.0,0.0
12/07/2023,03:05:50,0.001,0.0,0.0,0.0
12/07/2023,03:06:51,0.000,0.0,0.0,0.0
12/07/2023,03:07:50,0.001,0.0,0.0,0.0
12/07/2023,03:08:50,0.002,0.0,0.0,0.0
12/07/2023,03:09:51,0.001,0.0,0.0,0.0
12/07/2023,03:10:50,0.000,0.0,0.0,0.0
12/07/2023,03:11:50,-0.001,0.0,0.0,0.0
12/07/2023,03:12:50,0.000,0.0,0.0,0.0
12/07/2023,03:13:50,0.001,0.0,0.0,0.0
12/07/2023,03:14:51,0.001,0.0,0.0,0.0
12/07/2023,03:15:51,0.001,0.0,0.0,0.0
12/07/2023,03:16:51,0.000,0.0,0.0,0.0
12/07/2023,03:17:50,0.001,0.0,0.0,0.0
12/07/2023,03:18:51,0.000,0.0,0.0,0.0
12/07/2023,03:19:50,0.000,0.0,0.0,0.0
12/07/2023,03:20:50,-0.000,0.0,0.0,0.0
12/07/2023,03:21:51,0.000,0.0,0.0,0.0
12/07/2023,03:22:50,0.001,0.0,0.0,0.0
12/07/2023,03:23:50,0.002,0.0,0.0,0.0
12/07/2023,03:24:51,0.000,0.0,0.0,0.0
12/07/2023,03:25:50,0.001,0.0,0.0,0.0
12/07/2023,03:26:51,-0.000,0.0,0.0,0.0
12/07/2023,03:27:50,0.001,0.0,0.0,0.0
12/07/2023,03:28:51,0.001,0.0,0.0,0.0
12/07/2023,03:29:51,-0.000,0.0,0.0,0.0
12/07/2023,03:30:50,0.000,0.0,0.0,0.0
12/07/2023,03:31:51,0.001,0.0,0.0,0.0
12/07/2023,03:32:50,-0.000,0.0,0.0,0.0
12/07/2023,03:33:51,0.001,0.0,0.0,0.0
12/07/2023,03:34:51,0.001,0.0,0.0,0.0
12/07/2023,03:35:50,0.001,0.0,0.0,0.0
12/07/2023,03:36:50,0.001,0.0,0.0,0.0
12/07/2023,03:37:50,0.000,0.0,0.0,0.0
12/07/2023,03:38:51,0.001,0.0,0.0,0.0
12/07/2023,03:39:51,0.001,0.0,0.0,0.0
12/07/2023,03:40:50,0.001,0.0,0.0,0.0
12/07/2023,03:41:50,0.001,0.0,0.0,0.0
12/07/2023,03:42:51,0.001,0.0,0.0,0.0
12/07/2023,03:43:51,0.002,0.0,0.0,0.0
12/07/2023,03:44:50,0.002,0.0,0.0,0.0
12/07/2023,03:45:51,0.001,0.0,0.0,0.0
12/07/2023,03:46:50,0.001,0.0,0.0,0.0
12/07/2023,03:47:50,0.001,0.0,0.0,0.0
12/07/2023,03:48:51,0.002,0.0,0.0,0.0
12/07/2023,03:49:50,0.002,0.0,0.0,0.0
12/07/2023,03:50:50,0.002,0.0,0.0,0.0
12/07/2023,03:51:50,0.002,0.0,0.0,0.0
12/07/2023,03:52:51,0.002,0.0,0.0,0.0
12/07/2023,03:53:50,0.002,0.0,0.0,0.0
12/07/2023,03:54:50,0.002,0.0,0.0,0.0
12/07/2023,03:55:50,0.003,0.0,0.0,0.0
12/07/2023,03:56:51,0.003,0.0,0.0,0.0
12/07/2023,03:57:51,0.004,0.0,0.0,0.0
12/07/2023,03:58:50,0.003,0.0,0.0,0.0
12/07/2023,03:59:50,0.003,0.0,0.0,0.0
12/07/2023,04:00:50,0.003,0.0,0.0,0.0
12/07/2023,04:01:51,0.003,0.0,0.0,0.0
12/07/2023,04:02:51,0.003,0.0,0.0,0.0
12/07/2023,04:03:50,0.003,0.0,0.0,0.0
12/07/2023,04:04:50,0.003,0.0,0.0,0.0
12/07/2023,04:05:51,0.003,0.0,0.0,0.0
12/07/2023,04:06:50,0.004,0.0,0.0,0.0
12/07/2023,04:07:50,0.004,0.0,0.0,0.0
12/07/2023,04:08:51,0.004,0.0,0.0,0.0
12/07/2023,04:09:52,0.005,0.0,0.0,0.0
12/07/2023,04:10:50,0.005,0.0,0.0,0.0
12/07/2023,04:11:51,0.004,0.0,0.0,0.0
12/07/2023,04:12:50,0.005,0.0,0.0,0.0
12/07/2023,04:13:50,0.005,0.0,0.0,0.0
12/07/2023,04:14:51,0.004,0.0,0.0,0.0
12/07/2023,04:15:51,0.006,0.0,0.0,0.0
12/07/2023,04:16:50,0.005,0.0,0.0,0.0
12/07/2023,04:17:51,0.006,0.0,0.0,0.0
12/07/2023,04:18:51,0.007,0.0,0.0,0.0
12/07/2023,04:19:50,0.006,0.0,0.0,0.0
12/07/2023,04:20:50,0.007,0.0,0.0,0.0
12/07/2023,04:21:50,0.007,0.0,0.0,0.0
12/07/2023,04:22:50,0.008,0.0,0.001,0.001
12/07/2023,04:23:50,0.008,0.0,0.001,0.0
12/07/2023,04:24:51,0.008,0.0,0.001,0.0
12/07/2023,04:25:50,0.009,0.0,0.001,0.0
12/07/2023,04:26:50,0.009,0.0,0.001,0.0
12/07/2023,04:27:50,0.010,0.0,0.001,0.0
12/07/2023,04:28:51,0.010,0.0,0.001,0.0
12/07/2023,04:29:50,0.010,0.0,0.002,0.001
12/07/2023,04:30:50,0.010,0.0,0.002,0.0
12/07/2023,04:31:51,0.010,0.0,0.002,0.0
12/07/2023,04:32:51,0.011,0.0,0.002,0.0
12/07/2023,04:34:19,0.012,0.0,0.002,0.0
12/07/2023,04:35:51,0.012,0.0,0.003,0.001
12/07/2023,04:36:51,0.012,0.0,0.003,0.0
12/07/2023,04:37:51,0.013,0.0,0.003,0.0
12/07/2023,04:38:51,0.013,0.0,0.003,0.0
12/07/2023,04:39:51,0.014,0.0,0.004,0.001
12/07/2023,04:40:55,0.015,0.0,0.004,0.0
12/07/2023,04:41:51,0.015,0.0,0.004,0.0
12/07/2023,04:42:51,0.015,0.0,0.004,0.0
12/07/2023,04:43:50,0.016,0.0,0.005,0.001
12/07/2023,04:44:51,0.016,0.0,0.005,0.0
12/07/2023,04:45:50,0.017,0.0,0.005,0.0
12/07/2023,04:46:50,0.017,0.0,0.005,0.0
12/07/2023,04:47:50,0.018,0.0,0.006,0.001
12/07/2023,04:48:51,0.019,0.0,0.006,0.0
12/07/2023,04:49:50,0.019,0.0,0.006,0.0
12/07/2023,04:50:51,0.020,0.0,0.007,0.001
12/07/2023,04:51:50,0.020,0.0,0.007,0.0
12/07/2023,04:52:51,0.021,0.0,0.007,0.0
12/07/2023,04:53:51,0.022,0.0,0.008,0.001
12/07/2023,04:54:50,0.022,0.0,0.008,0.0
12/07/2023,04:55:50,0.023,0.0,0.008,0.0
12/07/2023,04:56:51,0.024,0.0,0.009,0.001
12/07/2023,04:57:50,0.024,0.0,0.009,0.0
12/07/2023,04:58:51,0.025,0.0,0.01,0.001
12/07/2023,04:59:50,0.026,0.0,0.01,0.0
12/07/2023,05:00:51,0.027,0.0,0.01,0.0
12/07/2023,05:01:50,0.028,0.0,0.011,0.001
12/07/2023,05:02:51,0.028,0.0,0.011,0.0
12/07/2023,05:03:50,0.028,0.0,0.012,0.001
12/07/2023,05:04:51,0.029,0.0,0.012,0.0
12/07/2023,05:05:50,0.029,0.0,0.013,0.001
12/07/2023,05:06:51,0.030,0.0,0.013,0.0
12/07/2023,05:07:50,0.032,0.0,0.014,0.001
12/07/2023,05:08:51,0.033,0.0,0.014,0.0
12/07/2023,05:09:51,0.034,0.0,0.015,0.001
12/07/2023,05:10:50,0.035,0.0,0.016,0.001
12/07/2023,05:11:51,0.036,0.0,0.016,0.0
12/07/2023,05:12:51,0.037,0.0,0.017,0.001
12/07/2023,05:13:50,0.038,0.0,0.017,0.0
12/07/2023,05:14:50,0.038,0.0,0.018,0.001
12/07/2023,05:15:51,0.040,0.0,0.019,0.001
12/07/2023,05:16:50,0.041,0.0,0.019,0.0
12/07/2023,05:17:51,0.041,0.0,0.02,0.001
12/07/2023,05:18:50,0.043,0.0,0.021,0.001
12/07/2023,05:19:50,0.043,0.0,0.021,0.0
12/07/2023,05:20:50,0.045,0.0,0.022,0.001
12/07/2023,05:21:51,0.046,0.0,0.023,0.001
12/07/2023,05:22:50,0.048,0.0,0.024,0.001
12/07/2023,05:23:52,0.048,0.0,0.024,0.0
12/07/2023,05:24:50,0.049,0.0,0.025,0.001
12/07/2023,05:25:50,0.050,0.0,0.026,0.001
12/07/2023,05:26:50,0.051,0.0,0.027,0.001
12/07/2023,05:27:51,0.052,0.0,0.028,0.001
12/07/2023,05:28:51,0.054,0.0,0.029,0.001
12/07/2023,05:29:50,0.054,0.0,0.03,0.001
12/07/2023,05:30:51,0.056,0.0,0.031,0.001
12/07/2023,05:31:50,0.058,0.0,0.031,0.0
12/07/2023,05:32:51,0.058,0.0,0.032,0.001
12/07/2023,05:33:51,0.060,0.0,0.033,0.001
12/07/2023,05:34:50,0.062,0.0,0.034,0.001
12/07/2023,05:35:51,0.063,0.0,0.036,0.002
12/07/2023,05:36:50,0.064,0.0,0.037,0.001
12/07/2023,05:37:51,0.066,0.0,0.038,0.001
12/07/2023,05:38:51,0.067,0.0,0.039,0.001
12/07/2023,05:39:50,0.069,0.0,0.04,0.001
12/07/2023,05:40:50,0.071,0.0,0.041,0.001
12/07/2023,05:41:51,0.073,0.0,0.042,0.001
12/07/2023,05:42:50,0.073,0.0,0.044,0.002
12/07/2023,05:43:50,0.076,0.0,0.045,0.001
12/07/2023,05:44:51,0.077,0.0,0.046,0.001
12/07/2023,05:45:50,0.075,0.0,0.047,0.001
12/07/2023,05:46:51,0.075,0.0,0.049,0.002
12/07/2023,05:47:50,0.077,0.0,0.05,0.001
12/07/2023,05:48:50,0.077,0.0,0.051,0.001
12/07/2023,05:49:50,0.076,0.0,0.052,0.001
12/07/2023,05:50:51,0.078,0.0,0.054,0.002
12/07/2023,05:51:50,0.083,0.0,0.055,0.001
12/07/2023,05:52:51,0.088,0.0,0.056,0.001
12/07/2023,05:53:51,0.090,0.0,0.058,0.002
12/07/2023,05:54:51,0.095,0.0,0.059,0.001
12/07/2023,05:55:51,0.100,0.0,0.061,0.002
12/07/2023,05:56:50,0.101,0.0,0.063,0.002
12/07/2023,05:57:51,0.103,0.0,0.064,0.001
12/07/2023,05:58:51,0.105,0.0,0.066,0.002
12/07/2023,05:59:51,0.104,0.0,0.068,0.002
12/07/2023,06:00:50,0.110,0.0,0.07,0.002
12/07/2023,06:01:51,0.112,0.0,0.071,0.001
12/07/2023,06:02:50,0.117,0.0,0.073,0.002
12/07/2023,06:03:51,0.118,0.0,0.075,0.002
12/07/2023,06:04:50,0.122,0.0,0.077,0.002
12/07/2023,06:05:51,0.125,0.0,0.079,0.002
12/07/2023,06:06:51,0.122,0.0,0.081,0.002
12/07/2023,06:07:50,0.130,0.0,0.083,0.002
12/07/2023,06:08:52,0.130,0.0,0.086,0.003
12/07/2023,06:09:50,0.129,0.0,0.088,0.002
12/07/2023,06:10:51,0.123,0.0,0.09,0.002
12/07/2023,06:11:50,0.118,0.0,0.092,0.002
12/07/2023,06:12:51,0.123,0.0,0.094,0.002
12/07/2023,06:13:50,0.135,0.0,0.096,0.002
12/07/2023,06:14:51,0.139,0.0,0.098,0.002
12/07/2023,06:15:50,0.136,0.0,0.1,0.002
12/07/2023,06:16:51,0.131,0.0,0.103,0.003
12/07/2023,06:17:50,0.145,0.0,0.105,0.002
12/07/2023,06:18:51,0.144,0.0,0.107,0.002
12/07/2023,06:19:50,0.157,0.0,0.11,0.003
12/07/2023,06:20:51,0.162,0.0,0.113,0.003
12/07/2023,06:21:50,0.163,0.0,0.115,0.002
12/07/2023,06:22:51,0.166,0.0,0.118,0.003
12/07/2023,06:23:51,0.170,0.0,0.121,0.003
12/07/2023,06:24:51,0.159,0.0,0.124,0.003
12/07/2023,06:25:50,0.178,0.0,0.126,0.002
12/07/2023,06:26:51,0.180,0.0,0.129,0.003
12/07/2023,06:27:50,0.183,0.0,0.132,0.003
12/07/2023,06:28:51,0.186,0.0,0.135,0.003
12/07/2023,06:29:51,0.189,0.0,0.139,0.004
12/07/2023,06:30:51,0.193,0.0,0.142,0.003
12/07/2023,06:31:51,0.193,0.0,0.145,0.003
12/07/2023,06:32:50,0.195,0.0,0.148,0.003
12/07/2023,06:33:50,0.200,0.0,0.151,0.003
12/07/2023,06:34:50,0.204,0.0,0.154,0.003
12/07/2023,06:35:51,0.208,0.0,0.158,0.004
12/07/2023,06:36:51,0.211,0.0,0.161,0.003
12/07/2023,06:37:50,0.212,0.0,0.165,0.004
12/07/2023,06:38:51,0.216,0.0,0.168,0.003
12/07/2023,06:39:50,0.202,0.0,0.172,0.004
12/07/2023,06:40:50,0.216,0.0,0.175,0.003
12/07/2023,06:41:50,0.224,1.0,0.179,0.004
12/07/2023,06:42:51,0.223,1.0,0.183,0.004
12/07/2023,06:43:51,0.226,1.0,0.187,0.004
12/07/2023,06:44:50,0.226,1.0,0.19,0.003
12/07/2023,06:45:51,0.206,0.0,0.194,0.004
12/07/2023,06:46:51,0.214,0.0,0.197,0.003
12/07/2023,06:47:52,0.213,0.0,0.201,0.004
12/07/2023,06:48:51,0.250,1.0,0.205,0.004
12/07/2023,06:49:50,0.254,1.0,0.209,0.004
12/07/2023,06:50:50,0.251,1.0,0.213,0.004
12/07/2023,06:51:51,0.264,1.0,0.217,0.004
12/07/2023,06:52:50,0.267,1.0,0.222,0.005
12/07/2023,06:53:51,0.273,1.0,0.226,0.004
12/07/2023,06:54:50,0.276,1.0,0.231,0.005
12/07/2023,06:55:51,0.283,1.0,0.235,0.004
12/07/2023,06:56:50,0.287,1.0,0.24,0.005
12/07/2023,06:57:51,0.291,1.0,0.245,0.005
12/07/2023,06:58:50,0.298,1.0,0.25,0.005
12/07/2023,06:59:51,0.291,1.0,0.255,0.005
12/07/2023,07:00:50,0.289,1.0,0.259,0.004
12/07/2023,07:01:51,0.313,1.0,0.265,0.006
12/07/2023,07:02:51,0.318,1.0,0.27,0.005
12/07/2023,07:03:51,0.326,1.0,0.275,0.005
12/07/2023,07:04:51,0.322,1.0,0.281,0.006
12/07/2023,07:05:51,0.333,1.0,0.286,0.005
12/07/2023,07:06:51,0.340,1.0,0.292,0.006
12/07/2023,07:07:50,0.347,1.0,0.297,0.005
12/07/2023,07:08:51,0.352,1.0,0.303,0.006
12/07/2023,07:09:51,0.358,1.0,0.309,0.006
12/07/2023,07:10:50,0.362,1.0,0.315,0.006
12/07/2023,07:11:51,0.367,1.0,0.321,0.006
12/07/2023,07:12:51,0.370,1.0,0.327,0.006
12/07/2023,07:13:50,0.376,1.0,0.334,0.007
12/07/2023,07:14:51,0.383,1.0,0.34,0.006
12/07/2023,07:15:51,0.387,1.0,0.346,0.006
12/07/2023,07:16:51,0.391,1.0,0.353,0.007
12/07/2023,07:17:51,0.397,1.0,0.359,0.006
12/07/2023,07:18:51,0.403,1.0,0.366,0.007
12/07/2023,07:19:52,0.409,1.0,0.373,0.007
12/07/2023,07:20:51,0.413,1.0,0.38,0.007
12/07/2023,07:21:51,0.420,1.0,0.387,0.007
12/07/2023,07:22:51,0.423,1.0,0.394,0.007
12/07/2023,07:23:51,0.429,1.0,0.401,0.007
12/07/2023,07:24:51,0.435,1.0,0.408,0.007
12/07/2023,07:25:51,0.441,1.0,0.415,0.007
12/07/2023,07:26:50,0.444,1.0,0.423,0.008
12/07/2023,07:27:51,0.451,1.0,0.43,0.007
12/07/2023,07:28:51,0.458,1.0,0.438,0.008
12/07/2023,07:29:51,0.465,1.0,0.446,0.008
12/07/2023,07:30:50,0.466,1.0,0.453,0.007
12/07/2023,07:31:51,0.475,1.0,0.461,0.008
12/07/2023,07:32:51,0.480,1.0,0.469,0.008
12/07/2023,07:33:50,0.487,1.0,0.477,0.008
12/07/2023,07:34:51,0.491,1.0,0.485,0.008
12/07/2023,07:35:50,0.494,1.0,0.493,0.008
12/07/2023,07:36:50,0.501,1.0,0.502,0.009
12/07/2023,07:37:51,0.505,1.0,0.51,0.008
12/07/2023,07:38:50,0.510,1.0,0.518,0.008
12/07/2023,07:39:51,0.428,1.0,0.527,0.009
12/07/2023,07:40:51,0.511,1.0,0.535,0.008
12/07/2023,07:41:51,0.536,1.0,0.544,0.009
12/07/2023,07:42:50,0.543,1.0,0.553,0.009
12/07/2023,07:43:51,0.505,1.0,0.562,0.009
12/07/2023,07:44:51,0.550,1.0,0.571,0.009
12/07/2023,07:45:51,0.547,1.0,0.58,0.009
12/07/2023,07:46:51,0.455,1.0,0.589,0.009
12/07/2023,07:47:51,0.427,1.0,0.596,0.007
12/07/2023,07:48:51,0.462,1.0,0.603,0.007
12/07/2023,07:49:52,0.529,1.0,0.612,0.009
12/07/2023,07:50:51,0.550,1.0,0.621,0.009
12/07/2023,07:51:50,0.429,1.0,0.628,0.007
12/07/2023,07:52:51,0.426,1.0,0.636,0.008
12/07/2023,07:53:51,0.484,1.0,0.644,0.008
12/07/2023,07:54:51,0.425,1.0,0.651,0.007
12/07/2023,07:55:50,0.416,1.0,0.658,0.007
12/07/2023,07:56:51,0.435,1.0,0.665,0.007
12/07/2023,07:57:51,0.420,1.0,0.672,0.007
12/07/2023,07:58:51,0.412,1.0,0.679,0.007
12/07/2023,07:59:51,0.428,1.0,0.686,0.007
12/07/2023,08:00:51,0.433,1.0,0.693,0.007
12/07/2023,08:01:50,0.431,1.0,0.7,0.007
12/07/2023,08:02:51,0.440,1.0,0.708,0.008
12/07/2023,08:03:51,0.453,1.0,0.715,0.007
12/07/2023,08:04:50,0.469,1.0,0.723,0.008
12/07/2023,08:05:51,0.492,1.0,0.731,0.008
12/07/2023,08:06:51,0.494,1.0,0.739,0.008
12/07/2023,08:07:51,0.516,1.0,0.747,0.008
12/07/2023,08:08:50,0.541,1.0,0.756,0.009
12/07/2023,08:09:51,0.584,1.0,0.766,0.01
12/07/2023,08:10:51,0.602,1.0,0.776,0.01
12/07/2023,08:11:50,0.624,1.0,0.786,0.01
12/07/2023,08:12:51,0.754,2.0,0.796,0.01
12/07/2023,08:13:51,0.754,2.0,0.808,0.012
12/07/2023,08:14:51,0.732,2.0,0.819,0.011
12/07/2023,08:15:51,0.599,1.0,0.83,0.011
12/07/2023,08:16:51,0.800,2.0,0.843,0.013
12/07/2023,08:17:50,0.761,2.0,0.856,0.013
12/07/2023,08:18:50,0.809,2.0,0.867,0.011
12/07/2023,08:19:51,0.829,2.0,0.881,0.014
12/07/2023,08:20:51,0.632,1.0,0.895,0.014
12/07/2023,08:21:51,0.846,2.0,0.906,0.011
12/07/2023,08:22:51,0.842,2.0,0.921,0.015
12/07/2023,08:23:51,0.834,2.0,0.934,0.013
12/07/2023,08:24:51,0.569,1.0,0.946,0.012
12/07/2023,08:25:51,0.849,2.0,0.959,0.013
12/07/2023,08:26:50,0.572,1.0,0.971,0.012
12/07/2023,08:27:51,0.610,1.0,0.981,0.01
12/07/2023,08:28:50,0.890,2.0,0.995,0.014
12/07/2023,08:29:51,0.871,2.0,1.01,0.015
12/07/2023,08:30:51,0.605,1.0,1.021,0.011
12/07/2023,08:31:51,0.583,1.0,1.033,0.012
12/07/2023,08:32:51,0.647,1.0,1.043,0.01
12/07/2023,08:33:51,0.929,2.0,1.058,0.015
12/07/2023,08:34:50,0.923,2.0,1.073,0.015
12/07/2023,08:35:51,0.791,2.0,1.086,0.013
12/07/2023,08:36:51,0.758,2.0,1.097,0.011
12/07/2023,08:37:51,0.909,2.0,1.112,0.015
12/07/2023,08:38:51,0.760,2.0,1.126,0.014
12/07/2023,08:39:51,0.526,1.0,1.136,0.01
12/07/2023,08:40:51,0.555,1.0,1.145,0.009
12/07/2023,08:41:51,0.551,1.0,1.154,0.009
12/07/2023,08:42:51,0.493,1.0,1.163,0.009
12/07/2023,08:43:52,0.438,1.0,1.171,0.008
12/07/2023,08:44:51,0.474,1.0,1.178,0.007
12/07/2023,08:45:51,0.641,1.0,1.186,0.008
12/07/2023,08:46:51,0.603,1.0,1.199,0.013
12/07/2023,08:47:51,0.977,2.0,1.211,0.012
12/07/2023,08:48:51,1.044,2.0,1.228,0.017
12/07/2023,08:49:51,1.073,2.0,1.245,0.017
12/07/2023,08:50:50,1.106,3.0,1.264,0.019
12/07/2023,08:51:51,1.137,3.0,1.282,0.018
12/07/2023,08:52:50,1.139,3.0,1.301,0.019
12/07/2023,08:53:50,1.143,3.0,1.32,0.019
12/07/2023,08:54:51,1.142,3.0,1.339,0.019
12/07/2023,08:55:51,1.157,3.0,1.358,0.019
12/07/2023,08:56:53,1.147,3.0,1.378,0.02
12/07/2023,08:57:50,1.142,3.0,1.396,0.018
12/07/2023,08:58:51,0.951,2.0,1.415,0.019
12/07/2023,08:59:51,0.866,2.0,1.427,0.012
12/07/2023,09:00:51,0.823,2.0,1.441,0.014
12/07/2023,09:01:51,0.743,2.0,1.455,0.014
12/07/2023,09:02:51,0.774,2.0,1.47,0.015
12/07/2023,09:03:52,0.846,2.0,1.483,0.013
12/07/2023,09:04:51,0.879,2.0,1.497,0.014
12/07/2023,09:05:51,0.832,2.0,1.513,0.016
12/07/2023,09:06:51,1.202,3.0,1.529,0.016
12/07/2023,09:07:51,1.197,3.0,1.549,0.02
12/07/2023,09:08:51,1.276,3.0,1.57,0.021
12/07/2023,09:09:51,0.909,2.0,1.588,0.018
12/07/2023,09:10:51,0.920,2.0,1.604,0.016
12/07/2023,09:11:50,1.118,3.0,1.62,0.016
12/07/2023,09:12:51,0.827,2.0,1.634,0.014
12/07/2023,09:13:51,1.220,3.0,1.652,0.018
12/07/2023,09:14:50,1.216,3.0,1.671,0.019
12/07/2023,09:15:51,0.716,2.0,1.689,0.018
12/07/2023,09:16:51,0.654,2.0,1.7,0.011
12/07/2023,09:17:51,0.661,2.0,1.711,0.011
12/07/2023,09:18:51,0.589,1.0,1.721,0.01
12/07/2023,09:19:51,0.506,1.0,1.729,0.008
12/07/2023,09:20:51,0.542,1.0,1.738,0.009
12/07/2023,09:21:51,0.523,1.0,1.747,0.009
12/07/2023,09:22:51,0.504,1.0,1.756,0.009
12/07/2023,09:23:51,0.524,1.0,1.764,0.008
12/07/2023,09:24:51,0.567,1.0,1.773,0.009
12/07/2023,09:25:51,0.604,1.0,1.783,0.01
12/07/2023,09:26:51,0.638,1.0,1.793,0.01
12/07/2023,09:27:51,0.695,2.0,1.805,0.012
12/07/2023,09:28:51,0.768,2.0,1.817,0.012
12/07/2023,09:29:52,0.855,2.0,1.831,0.014
12/07/2023,09:30:51,1.007,2.0,1.845,0.014
12/07/2023,09:31:51,1.270,3.0,1.866,0.021
12/07/2023,09:32:51,0.973,2.0,1.883,0.017
12/07/2023,09:33:51,0.985,2.0,1.9,0.017
12/07/2023,09:34:51,0.894,2.0,1.916,0.016
12/07/2023,09:35:51,0.905,2.0,1.93,0.014
12/07/2023,09:36:51,0.966,2.0,1.947,0.017
12/07/2023,09:37:51,0.978,2.0,1.965,0.018
12/07/2023,09:38:54,1.007,2.0,1.983,0.018
12/07/2023,09:39:51,1.112,3.0,1.999,0.016
12/07/2023,09:40:51,1.009,2.0,2.016,0.017
12/07/2023,09:41:51,1.001,2.0,2.035,0.019
12/07/2023,09:42:51,0.973,2.0,2.051,0.016
12/07/2023,09:43:51,0.998,2.0,2.068,0.017
12/07/2023,09:44:51,1.281,3.0,2.085,0.017
12/07/2023,09:45:51,1.130,3.0,2.105,0.02
12/07/2023,09:46:51,1.665,4.0,2.128,0.023
12/07/2023,09:47:55,1.564,4.0,2.157,0.029
12/07/2023,09:48:52,1.117,3.0,2.179,0.022
12/07/2023,09:49:51,1.571,4.0,2.205,0.026
12/07/2023,09:50:51,1.617,4.0,2.233,0.028
12/07/2023,09:51:51,1.668,4.0,2.259,0.026
12/07/2023,09:52:51,1.614,4.0,2.288,0.029
12/07/2023,09:53:51,1.795,4.0,2.317,0.029
12/07/2023,09:54:51,1.822,4.0,2.346,0.029